Weather History for Alma, GA

Change the Weather History Date:

Saturday, December 15, 2012

  Actual Average Record
Temperature  
Mean Temperature 54 °F 52 °F  
Max Temperature 65 °F 63 °F 80 °F (1971)
Min Temperature 43 °F 42 °F 17 °F (1962)
Degree Days  
Heating Degree Days 11 13  
Month to date heating degree days 77 171  
Since 1 July heating degree days 384 415  
Cooling Degree Days 0 0  
Month to date cooling degree days 4 7  
Year to date cooling degree days 2662 2472  
Growing Degree Days 4 (Base 50)    
Moisture  
Dew Point 48 °F    
Average Humidity 80    
Maximum Humidity 100    
Minimum Humidity 60    
Precipitation  
Precipitation 0.00 in 0.10 in 0.98 in (1949)
Month to date precipitation 0.66 1.48  
Year to date precipitation 34.68 44.84  
Snow  
Snow 0.00 in 0.00 in 0.00 in ()
Month to date snowfall 0.0 0.0  
Since 1 July snowfall 0.0 0.0  
Snow Depth 0.00 in    
Sea Level Pressure  
Sea Level Pressure 30.14 in    
Wind  
Wind Speed 2 mph (NE)    
Max Wind Speed 8 mph    
Max Gust Speed 9 mph    
Visibility 6 miles    
Events Fog    
T = Trace of Precipitation, MM = Missing Value Source: NWS Daily Summary

Daily Weather History Graph

Daily Weather History Graph

Search for Another Location

Airport:

Trip Planner

Search our weather history database for the weather conditions in past years. The results will help you decide how hot, cold, wet, or windy it might be!

Date:

Astronomy

Dec. 15, 2012 Rise Set
Actual Time 7:22 AM EST 5:28 PM EST
Civil Twilight 6:55 AM EST 5:55 PM EST
Nautical Twilight 6:25 AM EST 6:25 PM EST
Astronomical Twilight 5:55 AM EST 6:55 PM EST
Moon 9:20 AM EST (12/15) 8:23 PM EST (12/15)
Length of Visible Light 11h 00m
Length of Day
10h 06m
Waxing Crescent, 8% of the Moon is Illuminated
Dec 15
Waxing Crescent
Dec 20
First Quarter
Dec 28
Full
Jan 4
Last Quarter
Jan 11
New

Hourly Weather History & Observations

Time (EST) Temp. Windchill Dew Point Humidity Pressure Visibility Wind Dir Wind Speed Gust Speed Precip Events Conditions
12:53 AM 43.0 °F - 41.0 °F 93% 30.18 in 6.0 mi Calm Calm - N/A   Clear
1:53 AM 46.9 °F - 43.0 °F 86% 30.18 in 7.0 mi Calm Calm - N/A   Clear
2:53 AM 48.0 °F - 43.0 °F 83% 30.14 in 9.0 mi Calm Calm - N/A   Clear
3:53 AM 48.0 °F - 43.0 °F 83% 30.16 in 10.0 mi Calm Calm - N/A   Clear
4:30 AM 46.4 °F 45.2 °F 42.8 °F 87% 30.19 in 10.0 mi North 3.5 mph - N/A   Mostly Cloudy
4:53 AM 48.0 °F - 43.0 °F 83% 30.17 in 10.0 mi Calm Calm - N/A   Overcast
5:48 AM 48.2 °F - 42.8 °F 82% 30.17 in 10.0 mi Calm Calm - N/A   Partly Cloudy
5:53 AM 48.9 °F - 42.1 °F 77% 30.16 in 10.0 mi NE 3.5 mph - N/A   Scattered Clouds
6:01 AM 48.2 °F - 42.8 °F 82% 30.16 in 10.0 mi ENE 4.6 mph - N/A   Mostly Cloudy
6:18 AM 50.0 °F - 42.8 °F 76% 30.17 in 10.0 mi ENE 4.6 mph - N/A   Overcast
6:53 AM 50.0 °F - 41.0 °F 71% 30.19 in 10.0 mi NE 3.5 mph - N/A   Overcast
7:53 AM 51.1 °F - 42.1 °F 71% 30.19 in 10.0 mi East 3.5 mph - N/A   Overcast
8:53 AM 53.1 °F - 42.1 °F 66% 30.19 in 10.0 mi East 4.6 mph - N/A   Overcast
9:53 AM 55.9 °F - 44.1 °F 64% 30.21 in 10.0 mi NE 4.6 mph - N/A   Overcast
10:53 AM 59.0 °F - 46.0 °F 62% 30.22 in 10.0 mi NNW 3.5 mph - N/A   Overcast
11:53 AM 60.1 °F - 46.9 °F 62% 30.19 in 10.0 mi Calm Calm - N/A   Overcast
12:53 PM 61.0 °F - 48.0 °F 62% 30.18 in 10.0 mi NNW 6.9 mph - N/A   Overcast
1:53 PM 63.0 °F - 51.1 °F 65% 30.14 in 10.0 mi Variable 3.5 mph - N/A   Overcast
2:53 PM 64.0 °F - 53.1 °F 67% 30.13 in 10.0 mi East 3.5 mph - N/A   Scattered Clouds
3:53 PM 64.0 °F - 54.0 °F 70% 30.11 in 10.0 mi NE 3.5 mph - N/A   Clear
4:53 PM 64.0 °F - 54.0 °F 70% 30.11 in 10.0 mi ENE 3.5 mph - N/A   Clear
5:53 PM 59.0 °F - 54.0 °F 83% 30.12 in 10.0 mi Calm Calm - N/A   Clear
6:53 PM 55.0 °F - 53.1 °F 93% 30.12 in 6.0 mi Calm Calm - N/A   Clear
7:43 PM 53.6 °F - 51.8 °F 94% 30.11 in 2.5 mi East 3.5 mph - N/A   Clear
7:53 PM 52.0 °F - 50.0 °F 93% 30.11 in 3.0 mi Calm Calm - N/A   Clear
8:06 PM 51.8 °F - 50.0 °F 94% 30.11 in 1.8 mi Calm Calm - N/A   Clear
8:27 PM 51.8 °F - 51.8 °F 100% 30.10 in 3.0 mi East 3.5 mph - N/A   Clear
8:53 PM 53.1 °F - 52.0 °F 96% 30.11 in 3.0 mi Calm Calm - N/A   Clear
9:00 PM 53.6 °F - 51.8 °F 94% 30.11 in 2.5 mi Calm Calm - N/A   Clear
9:18 PM 53.6 °F - 51.8 °F 94% 30.11 in 1.0 mi Calm Calm - N/A   Clear
9:31 PM 53.6 °F - 51.8 °F 94% 30.10 in 0.8 mi Calm Calm - N/A   Clear
9:40 PM 53.6 °F - 51.8 °F 94% 30.10 in 1.5 mi Calm Calm - N/A   Clear
9:53 PM 54.0 °F - 52.0 °F 93% 30.11 in 1.2 mi Calm Calm - N/A   Clear
9:59 PM 53.6 °F - 51.8 °F 94% 30.11 in 3.0 mi Calm Calm - N/A   Clear
10:05 PM 53.6 °F - 51.8 °F 94% 30.11 in 1.8 mi Calm Calm - N/A   Clear
10:11 PM 51.8 °F - 51.8 °F 100% 30.10 in 0.8 mi Calm Calm - N/A   Mist
10:36 PM 51.8 °F - 50.0 °F 94% 30.09 in 0.8 mi Calm Calm - N/A   Overcast
10:43 PM 53.6 °F - 51.8 °F 94% 30.10 in 1.2 mi Calm Calm - N/A   Overcast
10:53 PM 54.0 °F - 53.1 °F 97% 30.10 in 0.5 mi Calm Calm - N/A Fog Fog
11:35 PM 53.6 °F - 51.8 °F 94% 30.11 in 0.2 mi Calm Calm - N/A Fog Fog
11:48 PM 53.6 °F - 51.8 °F 94% 30.12 in 0.5 mi Calm Calm - N/A Fog Fog
11:53 PM 54.0 °F - 52.0 °F 93% 30.11 in 0.5 mi Calm Calm - N/A Fog Fog